Back to catalog

WEILI KONGJIAN 05-08

AliveScienceLEO
NORAD 69636·PAYLOAD·🇨🇳 China
This satellite name has not been confirmed by official sources yet.

Launched Jun 17, 2026 from Jiuquan Satellite Launch Center

Loading…

Next Passes (next 24 hours)

TLE

FreshSource: Space-Track

Epoch: Sep 13, 2026, 21:05 UTC

1 69636U 26138J   26256.87908932 -.00000098  00000-0  30675-4 0  9990
2 69636  55.1410 314.0667 0006967 262.6078  97.4102 14.08363253 12544

Track WEILI KONGJIAN 05-08 in real time with AllMySat

Download on the App Store